Total_Precipitation_Accumulation
0.77 0.71 0.60 0.62 0.57 0.60 0.67 0.71 0.75 0.76 0.81 0.77 0.76 0.79 0.80 0.77 0.70 0.69 0.84 1.03 1.43 1.64 1.52 1.37 1.19 1.16 1.14 1.06 1.09 1.28 1.44 1.60 1.59 1.63 1.72 1.82 1.69 1.52 1.48 1.39 1.40 1.37 1.23
0.71 0.74 0.69 0.70 0.71 0.69 0.69 0.69 0.69 0.80 0.84 0.83 0.82 0.83 0.82 0.72 0.72 0.80 0.94 1.00 1.03 1.25 1.63 1.68 1.53 1.37 1.25 1.12 1.10 1.21 1.36 1.47 1.44 1.50 1.58 1.63 1.55 1.34 1.26 1.35 1.51 1.31 1.10
0.68 0.74 0.77 0.78 0.79 0.80 0.79 0.81 0.81 0.88 0.86 0.88 0.90 0.84 0.80 0.74 0.74 0.80 0.86 0.93 0.76 0.71 1.05 1.53 1.73 1.61 1.51 1.39 1.22 1.22 1.30 1.44 1.36 1.47 1.54 1.57 1.42 1.29 1.16 1.31 1.47 1.34 1.13
0.71 0.80 0.82 0.86 0.92 0.84 0.81 0.88 0.93 0.99 0.96 0.99 1.02 0.89 0.75 0.79 0.77 0.80 0.91 0.92 0.85 0.69 0.73 0.91 1.17 1.35 1.59 1.68 1.47 1.38 1.36 1.34 1.28 1.42 1.51 1.46 1.32 1.26 1.18 1.28 1.31 1.31 1.28
0.89 0.96 1.01 1.04 1.06 1.08 1.00 0.90 0.92 1.00 1.10 1.13 1.04 0.95 0.82 0.82 0.85 0.85 1.02 1.03 0.93 0.82 0.83 0.72 0.76 0.87 1.06 1.40 1.49 1.54 1.48 1.34 1.26 1.33 1.37 1.25 1.26 1.21 1.09 1.16 1.21 1.17 1.20
1.17 1.27 1.25 1.21 1.27 1.36 1.38 1.18 1.22 1.18 1.14 1.22 1.10 1.02 0.99 0.92 0.93 0.99 1.04 1.11 1.12 0.97 0.98 0.86 0.78 0.61 0.67 0.94 1.23 1.55 1.66 1.55 1.38 1.35 1.42 1.21 1.15 1.18 1.00 0.98 1.06 1.11 1.10
1.50 1.67 1.64 1.62 1.63 1.61 1.57 1.51 1.64 1.59 1.33 1.25 1.42 1.39 1.25 1.09 1.06 1.04 1.05 1.18 1.26 1.24 1.25 1.11 0.99 0.78 0.61 0.61 0.74 1.21 1.55 1.72 1.67 1.52 1.61 1.51 1.21 1.10 1.03 0.98 1.01 1.08 1.14
1.73 1.77 1.98 2.08 2.05 2.15 2.12 1.94 2.07 2.07 1.71 1.48 1.70 1.99 1.72 1.52 1.15 1.05 1.11 1.13 1.22 1.35 1.41 1.24 1.05 0.90 0.82 0.75 0.58 0.76 1.04 1.48 1.73 1.63 1.80 1.91 1.46 1.15 1.02 1.01 1.03 1.11 1.24
1.89 1.90 2.02 2.19 2.21 2.28 2.36 2.43 2.38 2.47 2.25 1.87 1.76 2.02 1.90 1.77 1.58 1.19 1.11 1.20 1.34 1.42 1.48 1.47 1.31 1.06 0.99 0.99 0.78 0.62 0.73 0.92 1.39 1.62 1.81 2.11 1.77 1.32 1.06 1.03 1.04 1.05 1.19
2.07 2.15 2.17 2.28 2.31 2.32 2.41 2.52 2.48 2.61 2.65 2.27 2.00 1.79 1.62 1.62 1.73 1.49 1.25 1.22 1.39 1.43 1.45 1.49 1.51 1.34 1.17 1.17 1.02 0.80 0.79 0.84 1.09 1.56 1.85 2.13 2.05 1.60 1.22 1.14 1.16 1.06 1.11
2.18 2.22 2.28 2.45 2.44 2.41 2.39 2.59 2.64 2.73 2.65 2.56 2.42 2.25 2.09 1.84 1.51 1.57 1.58 1.43 1.34 1.26 1.35 1.46 1.61 1.55 1.40 1.32 1.36 1.05 0.82 0.80 0.87 1.37 1.76 2.17 2.24 1.96 1.68 1.53 1.39 1.30 1.14
2.22 2.12 2.03 2.17 2.24 2.27 2.26 2.45 2.62 2.74 2.73 2.75 2.66 2.37 2.30 2.16 1.82 1.76 1.62 1.50 1.49 1.32 1.27 1.34 1.40 1.40 1.41 1.37 1.31 1.28 1.00 0.83 0.81 1.09 1.46 1.77 2.12 2.18 2.10 1.99 1.76 1.64 1.47
2.04 2.09 1.97 1.96 1.99 1.94 1.99 2.11 2.17 2.24 2.39 2.54 2.45 2.24 2.19 2.04 2.02 2.02 1.90 1.65 1.48 1.27 1.29 1.27 1.26 1.24 1.22 1.26 1.34 1.44 1.10 0.86 0.76 0.88 1.17 1.32 1.53 1.86 2.11 2.11 2.01 1.95 1.87
1.73 1.82 1.81 1.76 1.80 1.84 1.85 1.93 1.94 1.95 1.98 2.05 2.05 2.13 2.19 2.06 1.98 1.91 1.92 2.06 1.81 1.57 1.43 1.30 1.29 1.29 1.22 1.21 1.38 1.46 1.13 0.93 0.76 0.72 0.80 0.98 1.17 1.48 1.77 1.91 2.00 2.08 2.06
1.28 1.35 1.45 1.52 1.61 1.66 1.72 1.86 1.93 1.92 1.87 1.85 1.95 2.02 1.97 1.95 1.92 1.81 1.79 1.92 1.98 1.84 1.71 1.53 1.39 1.31 1.32 1.27 1.37 1.20 1.13 1.02 0.84 0.75 0.70 0.69 0.81 1.07 1.26 1.45 1.61 1.62 1.72
0.94 1.00 1.11 1.28 1.50 1.63 1.67 1.74 1.79 1.87 1.91 1.86 1.94 2.03 2.05 2.05 2.07 1.99 1.87 1.84 1.77 1.81 1.74 1.52 1.33 1.24 1.36 1.27 1.38 1.19 1.13 1.25 1.02 0.84 0.77 0.72 0.69 0.73 0.85 1.01 1.13 1.19 1.19
0.79 0.91 0.95 1.09 1.25 1.43 1.61 1.76 1.78 1.78 1.81 1.79 1.73 1.82 1.94 2.03 2.16 2.18 2.16 2.04 1.88 1.84 1.76 1.60 1.40 1.26 1.39 1.45 1.40 1.34 1.22 1.13 1.08 0.99 0.89 0.86 0.80 0.68 0.74 0.82 0.93 0.99 1.02
0.62 0.72 0.85 1.05 1.16 1.25 1.30 1.38 1.46 1.51 1.54 1.58 1.57 1.55 1.62 1.74 1.89 2.04 2.12 2.06 2.05 1.95 1.85 1.82 1.66 1.40 1.29 1.37 1.44 1.51 1.42 1.22 1.15 1.19 1.10 1.00 0.94 0.80 0.72 0.75 0.83 0.87 0.88
0.61 0.66 0.80 0.96 1.01 1.06 1.10 1.12 1.23 1.31 1.32 1.31 1.36 1.33 1.35 1.45 1.59 1.72 1.81 1.88 2.00 2.04 2.03 1.93 1.85 1.66 1.42 1.42 1.47 1.48 1.50 1.60 1.36 1.25 1.24 1.19 1.12 1.03 0.96 0.87 0.85 0.87 0.82
0.63 0.69 0.85 0.94 0.95 0.91 1.00 1.03 1.09 1.13 1.10 1.05 1.08 1.09 1.14 1.19 1.26 1.38 1.53 1.74 1.93 2.04 2.11 2.10 2.00 1.77 1.61 1.57 1.55 1.54 1.61 1.68 1.67 1.45 1.33 1.24 1.29 1.25 1.13 1.04 0.96 0.93 0.92
0.65 0.71 0.77 0.88 0.92 0.90 0.93 1.00 0.99 0.93 0.93 0.92 0.88 0.79 0.81 0.88 0.89 0.97 1.02 1.31 1.56 1.79 1.93 2.00 1.98 1.84 1.63 1.52 1.40 1.44 1.57 1.74 1.82 1.78 1.68 1.41 1.33 1.28 1.24 1.19 1.10 1.01 0.97
0.54 0.59 0.64 0.80 0.92 0.82 0.94 0.93 0.85 0.78 0.76 0.80 0.77 0.70 0.68 0.72 0.63 0.60 0.64 0.85 1.15 1.36 1.55 1.73 1.79 1.68 1.54 1.46 1.50 1.51 1.51 1.57 1.60 1.53 1.53 1.55 1.47 1.36 1.28 1.22 1.23 1.22 1.14
0.47 0.52 0.57 0.73 0.83 0.91 0.86 0.71 0.74 0.74 0.75 0.77 0.79 0.81 0.74 0.69 0.77 0.68 0.62 0.69 0.78 0.89 1.05 1.32 1.54 1.54 1.63 1.56 1.47 1.41 1.43 1.47 1.47 1.53 1.54 1.54 1.45 1.35 1.22 1.17 1.31 1.26 1.26
0.44 0.49 0.55 0.59 0.67 0.80 0.74 0.60 0.64 0.64 0.74 0.82 0.84 0.93 0.94 0.88 0.85 0.93 0.88 0.89 0.85 0.78 0.85 0.77 0.99 1.37 1.51 1.57 1.52 1.55 1.64 1.57 1.45 1.48 1.50 1.52 1.44 1.33 1.18 1.09 1.18 1.11 1.07
0.48 0.51 0.55 0.58 0.64 0.68 0.65 0.58 0.61 0.67 0.80 0.82 0.79 0.90 0.94 0.88 0.92 0.98 1.11 1.17 1.10 0.94 1.05 1.06 0.98 1.09 1.23 1.29 1.40 1.50 1.56 1.49 1.44 1.36 1.26 1.23 1.18 1.21 1.26 1.17 1.13 1.17 1.08
0.47 0.49 0.48 0.48 0.53 0.55 0.60 0.51 0.62 0.73 0.78 0.80 0.81 0.87 1.01 0.93 0.90 0.88 0.97 1.12 1.11 0.98 0.86 0.90 0.87 0.77 0.71 0.82 1.02 1.19 1.47 1.58 1.51 1.41 1.22 1.15 1.17 1.14 1.17 1.11 1.02 1.06 1.05